Regional Weather Roundup
Issued by NWS

Home | Current Version | Previous Version | Text Only | Print | Product List | Glossary On
Versions: 1 2 3 4 5 6 7 8 9 10 11 12 13 14 15 16 17 18 19 20 21 22 23 24 25 26 27 28 29 30 31 32 33 34 35 36 37 38 39 40 41 42 43 44 45 46 47 48 49 50
000
ASUS43 KDTX 310210
RWRMI
MICHIGAN HOURLY REGIONAL WEATHER ROUNDUP
NATIONAL WEATHER SERVICE DETROIT/PONTIAC MI
1000 PM EDT MON MAR 30 2015

NOTE: "FAIR" INDICATES FEW OR NO CLOUDS BELOW 12,000 FEET WITH NO
SIGNIFICANT WEATHER AND/OR OBSTRUCTION TO VISIBILITY.

MIZ047>049-052>055-059>063-066>070-074>076-081>083-310300-
SOUTHEAST LOWER MICHIGAN

CITY           SKY/WX    TMP DP  RH WIND       PRES   REMARKS
ADRIAN         CLOUDY    45  27  49 W3        29.97R
ALMA           CLOUDY    38  32  78 CALM      29.93R
ANN ARBOR      CLOUDY    41  26  55 CALM      29.96R
BAD AXE        CLEAR     30  23  75 CALM      29.95R
DETROIT CITY   PTCLDY    39  26  59 E8        29.98R
DETROIT        CLOUDY    48  22  35 W3        29.97R
FLINT          MOCLDY    42  22  44 SE3       29.95R
GROSSE ILE     CLOUDY    46  19  34 CALM      29.95R
HILLSDALE      CLOUDY    49  34  56 W18G25    29.98R
HOWELL         CLOUDY    41  22  46 CALM      29.94R

CITY           SKY/WX    TMP DP  RH WIND       PRES   REMARKS
JACKSON        CLOUDY    44  27  51 W6        29.95R
LAMBERTVILLE   CLOUDY    48  30  49 CALM      29.98R
LANSING        CLOUDY    46  26  45 SW6       29.94S
LAPEER         NOT AVBL
MASON          CLOUDY    43  27  53 CALM      29.94S
MONROE         CLOUDY    46  30  53 CALM      29.95R
MT. CLEMENS    PTCLDY    34  25  71 E5        29.95R
PONTIAC        MOCLDY    40  22  48 E3        29.94R
PORT HOPE        N/A     30  24  78 CALM      29.93R
PORT HURON     PTCLDY    28  27  93 CALM      29.97R
TRI CITIES     MOCLDY    39  23  52 E5        29.94R
YPSILANTI      CLOUDY    49  22  34 NW5       29.96R
$$
MIZ043>046-050>051-056>058-064>065-071>073-077>080-310300-
SOUTHWEST LOWER MICHIGAN

CITY           SKY/WX    TMP DP  RH WIND       PRES   REMARKS
BATTLE CREEK   LGT RAIN  48  37  65 W9        29.96R
BENTON HARBOR  CLOUDY    43  41  93 SE5       29.94F
BIG RAPIDS     CLOUDY    40  27  58 CALM      29.89S
COLDWATER      LGT RAIN  45  39  79 W9        29.99R
HOLLAND        CLOUDY    43  39  86 S5        29.93F
GRAND RAPIDS   LGT RAIN  47  32  56 SW13      29.93S
KALAMAZOO      LGT RAIN  50  36  58 W8        29.96R
MARSHALL       RAIN      46  35  65 MISG      29.96R
MUSKEGON       LGT RAIN  41  35  79 S5        29.91F
$$
MIZ016>042-310300-
NORTHERN LOWER MICHIGAN

CITY           SKY/WX    TMP DP  RH WIND       PRES   REMARKS
ALPENA         PTCLDY    28  20  71 CALM      29.92R
BEAVER ISLAND  MOCLDY    29  26  87 CALM      29.92S
BELLAIRE       MOCLDY    29  26  86 CALM      29.91S
CADILLAC       CLOUDY    35  26  69 CALM      29.87F
CHARLEVOIX     MOCLDY    32  26  77 CALM      29.94R
FRANKFORT      CLOUDY    39  28  62 CALM      29.88S
GAYLORD        PTCLDY    30  21  69 CALM      29.88S
GRAYLING       PTCLDY    28  20  71 CALM      29.90S
HARBOR SPRINGS MOCLDY    31  26  80 CALM      29.91S
HOUGHTON LAKE  MOCLDY    30  22  72 CALM      29.90S
MANISTEE       CLOUDY    37  27  65 E5        29.87F
OSCODA         CLEAR     30  19  64 CALM      29.93R
PELLSTON       MOCLDY    30  25  81 NW3       29.92R
TRAVERSE CITY  CLOUDY    35  27  72 CALM      29.88S
$$
MIZ007>008-015-310300-
EASTERN UPPER MICHIGAN

CITY           SKY/WX    TMP DP  RH WIND       PRES   REMARKS
KINROSS        PTCLDY    23  21  93 W3        29.92R
MACKINAC ISLAN MOCLDY    31  26  82 N6        29.92R
NEWBERRY       MOCLDY    26  22  84 W3        29.91S
S. S. MARIE    CLEAR     23  19  85 SW3       29.91R
$$
MIZ004>006-011>014-085-310300-
CENTRAL UPPER MICHIGAN

CITY           SKY/WX    TMP DP  RH WIND       PRES   REMARKS
MANISTIQUE     MOCLDY    29  28  96 CALM      29.92R
ESCANABA       CLOUDY    34  27  75 NE3       29.91R
MENOMINEE      CLOUDY    36  28  75 E5        29.86S
SAWYER-GWINN   CLEAR     28  25  86 CALM      29.89R
$$
MIZ001>003-009>011-084-310300-
WESTERN UPPER MICHIGAN

CITY           SKY/WX    TMP DP  RH WIND       PRES   REMARKS
IRON MOUNTAIN  CLOUDY    40  27  59 E12       29.85R
HOUGHTON       PTCLDY    27  24  89 E8        29.88R
COPPER HARBOR    N/A     29  23  78 S3        29.91R
IRONWOOD       CLOUDY    41  27  56 SW5       29.83R
$$

ABBREVIATIONS USED IN REMARKS
   TC - TEMPERATURE IN CELSIUS
  WCI - WIND CHILL INDEX
   HX - HEAT INDEX
  VSB - VISIBILITY



USA.gov is the U.S. government's official web portal to all federal, state and local government web resources and services.